[[{"header":{"parameterUnit":"m.s-1","parameterCategory":1,"la1":30.2992,"la2":30.254,"lo1":-89.0895,"lo2":-89.0443,"dy":0.0025,"dx":0.0025,"nx":19,"ny":19,"refTime":"2026-04-22T03:00:00:Z","depth":0,"parameterNumber":2,"parameterNumberName":"U-component_of_WINDS"},"data":[0,0,0,-2.7581,-2.7581,-2.7545,-2.7544,-2.7521,-2.7521,0,0,0,0,0,0,0,0,0,0,0,-2.7606,-2.7606,-2.7581,-2.7581,-2.7545,-2.7544,-2.7521,-2.7521,0,0,0,0,0,0,0,0,0,0,0,-2.7606,-2.7606,-2.7607,-2.758,-2.7545,-2.7544,-2.7521,-2.754,0,0,0,0,0,0,0,0,0,0,-2.7571,-2.7608,-2.7606,-2.7607,-2.758,-2.7545,-2.7544,-2.7541,-2.7539,-2.7547,0,-2.7559,0,-2.754,-2.7521,-2.7521,0,0,0,-2.757,-2.761,-2.7587,-2.7607,-2.758,-2.7545,-2.7558,-2.7539,-2.7537,-2.7545,-2.7559,-2.7557,-2.754,-2.7521,-2.7521,-2.7608,-2.7609,0,0,-2.7572,-2.7607,-2.7589,-2.7587,-2.7594,-2.7559,-2.7557,-2.7538,-2.7555,-2.7559,-2.7556,-2.7539,-2.7521,-2.7521,-2.7607,-2.7608,0,0,0,-2.7585,-2.7609,-2.7586,-2.7588,-2.758,-2.7558,-2.7556,-2.7555,-2.7545,-2.7556,-2.7539,-2.7521,-2.7521,-2.7606,-2.7607,-2.7687,0,0,0,-2.7585,-2.7616,-2.7588,-2.7609,-2.7581,-2.7567,-2.7574,-2.7546,-2.7543,-2.7539,-2.7521,-2.7521,-2.7605,-2.7607,-2.7682,-2.7718,0,0,0,-2.7603,-2.7618,-2.7618,-2.7611,-2.7597,-2.7567,-2.7555,-2.7545,-2.7533,-2.7521,-2.7521,-2.7604,-2.7606,-2.7678,-2.7711,-2.7751,0,0,0,-2.7633,-2.7689,-2.762,-2.7677,-2.7598,-2.7617,-2.7555,-2.7567,-2.7566,-2.7521,-2.7605,-2.7607,-2.7677,-2.7707,-2.7747,-2.779,-2.7811,0,0,-2.7724,-2.7702,-2.7732,-2.7669,-2.771,-2.7619,-2.7671,-2.7636,-2.7603,-2.7608,-2.7609,-2.7684,-2.7711,-2.775,-2.792,-2.7938,0,0,0,-2.7773,-2.7795,-2.7798,-2.7799,-2.7774,-2.7756,-2.771,-2.7697,-2.7699,-2.7613,-2.7708,-2.7723,-2.7744,-2.7763,-2.7778,-2.7793,-2.7618,-2.7617,-2.7617,-2.7952,-2.7906,-2.7953,-2.7903,-2.7905,-2.7857,-2.7854,-2.7828,-2.7781,-2.7804,-2.7805,-2.7914,-2.7938,-2.7949,-2.7966,-2.7825,-2.7825,-2.7825,-2.7826,-2.808,-2.8104,-2.8041,-2.8064,-2.8015,-2.8034,-2.799,-2.7956,-2.7966,-2.791,-2.7926,-2.7869,-2.7969,-2.7982,-2.7831,-2.783,-2.783,-2.7829,-2.7829,-2.8192,-2.8195,-2.8179,-2.8176,-2.8178,-2.8125,-2.8138,-2.8093,-2.8051,-2.8067,-2.8063,-2.8061,-2.8054,-2.8069,-2.8069,-2.8069,-2.807,-2.807,-2.807,-2.8314,-2.8293,-2.8309,-2.8288,-2.8283,-2.827,-2.8222,-2.8216,-2.8196,-2.8163,-2.8162,-2.8113,-2.7988,-2.7957,-2.8076,-2.8075,-2.8074,-2.8073,-2.8073,-2.846,-2.8419,-2.8445,-2.844,-2.8411,-2.8416,-2.8359,-2.8349,-2.8337,-2.8344,-2.8292,-2.8207,-2.8181,-2.8168,-2.8142,-2.8302,-2.8302,-2.8302,-2.8302,-2.8553,-2.8536,-2.8551,-2.8546,-2.8535,-2.8486,-2.8516,-2.848,-2.8436,-2.8425,-2.8396,-2.8358,-2.8348,-2.8327,-2.8312,-2.8286,-2.8479,-2.8479,-2.8479,-2.864,-2.862,-2.8654,-2.8611,-2.8585,-2.8564,-2.859,-2.8586,-2.8527,-2.8485,-2.8416,-2.8408,-2.8346,-2.8329,-2.8285,-2.8262,-2.8215,0,0]},{"header":{"parameterUnit":"m.s-1","parameterCategory":1,"la1":30.2992,"la2":30.254,"lo1":-89.0895,"lo2":-89.0443,"dy":0.0025,"dx":0.0025,"nx":19,"ny":19,"refTime":"2026-04-22T03:00:00:Z","depth":0,"parameterNumber":3,"parameterNumberName":"V-component_of_WINDS"},"data":[0,0,0,2.4959,2.4959,2.4964,2.4964,2.4975,2.4975,0,0,0,0,0,0,0,0,0,0,0,2.4961,2.4961,2.4959,2.4959,2.4964,2.4964,2.4975,2.4975,0,0,0,0,0,0,0,0,0,0,0,2.4961,2.4961,2.4961,2.4959,2.4964,2.4964,2.4975,2.4969,0,0,0,0,0,0,0,0,0,0,2.4964,2.4969,2.4961,2.4961,2.4959,2.4964,2.4964,2.4969,2.497,2.4975,0,2.4981,0,2.4978,2.4976,2.4976,0,0,0,2.4956,2.4968,2.4967,2.4961,2.4959,2.4964,2.4961,2.4969,2.497,2.4976,2.4981,2.4981,2.4979,2.4976,2.4976,2.5018,2.5019,0,0,2.4956,2.4963,2.4966,2.4967,2.4967,2.4961,2.4961,2.497,2.4976,2.4981,2.4982,2.4979,2.4976,2.4977,2.5018,2.5018,0,0,0,2.4957,2.4963,2.4961,2.4967,2.4968,2.4961,2.4961,2.4975,2.4974,2.4982,2.4979,2.4977,2.4977,2.5018,2.5018,2.5041,0,0,0,2.4957,2.4964,2.4961,2.4966,2.4968,2.4972,2.4967,2.4973,2.4974,2.4979,2.4977,2.4977,2.5017,2.5018,2.504,2.505,0,0,0,2.4959,2.4964,2.4966,2.4966,2.4968,2.4971,2.497,2.4973,2.4973,2.4976,2.4977,2.5017,2.5018,2.5038,2.5048,2.5064,0,0,0,2.4963,2.4985,2.4966,2.499,2.4968,2.4986,2.497,2.4983,2.4989,2.4977,2.5017,2.5018,2.5038,2.5047,2.5062,2.5078,2.5085,0,0,2.4995,2.4989,2.5003,2.4986,2.5009,2.4985,2.5011,2.5009,2.5002,2.5013,2.5014,2.504,2.5048,2.5063,2.5123,2.5129,0,0,0,2.5015,2.5025,2.5029,2.5036,2.5036,2.5037,2.5031,2.503,2.504,2.501,2.505,2.5054,2.5063,2.507,2.5075,2.5082,2.5022,2.5022,2.5021,2.5068,2.506,2.5082,2.5075,2.5081,2.5076,2.508,2.5079,2.5067,2.5078,2.508,2.5118,2.5126,2.513,2.5137,2.5088,2.5088,2.5088,2.5088,2.5113,2.5125,2.5112,2.5128,2.512,2.5133,2.5129,2.5121,2.5132,2.5114,2.5122,2.5103,2.5136,2.5142,2.509,2.509,2.509,2.5089,2.5089,2.5147,2.5151,2.5152,2.5161,2.517,2.5162,2.5174,2.5165,2.5157,2.5165,2.5167,2.5167,2.5165,2.5167,2.5167,2.5167,2.5167,2.5167,2.5167,2.5181,2.5181,2.5192,2.5196,2.52,2.5204,2.52,2.5203,2.5205,2.5198,2.5198,2.5186,2.5142,2.513,2.5169,2.5169,2.5169,2.5168,2.5168,2.5228,2.5217,2.5234,2.5239,2.5243,2.5252,2.5242,2.525,2.5252,2.5258,2.5246,2.5215,2.5208,2.5204,2.5194,2.5247,2.5247,2.5247,2.5247,2.5256,2.5253,2.527,2.5277,2.5283,2.5277,2.5297,2.5295,2.529,2.5291,2.5282,2.527,2.5266,2.5261,2.5256,2.5247,2.5313,2.5313,2.5313,2.5285,2.5282,2.5301,2.5298,2.5301,2.5304,2.5323,2.5332,2.5324,2.5315,2.5291,2.5289,2.5268,2.5262,2.525,2.5243,2.5226,0,0]}]]